Regional Weather Roundup
Issued by NWS

Home | Current Version | Previous Version | Graphics & Text | Print | Product List | Glossary On
Versions: 1 2 3 4 5 6 7 8 9 10 11 12 13 14 15 16 17 18 19 20 21 22 23 24 25 26 27 28 29 30 31 32 33 34 35 36 37 38 39 40 41 42 43 44 45 46 47
000
ASUS43 KDMX 250707
RWRIA

WEATHER ROUNDUP FOR IOWA
NATIONAL WEATHER SERVICE DES MOINES IA
200 AM CDT FRI JUL 25 2014

NOTE: "FAIR" INDICATES FEW OR NO CLOUDS BELOW 12,000 FEET WITH NO
SIGNIFICANT WEATHER AND/OR OBSTRUCTIONS TO VISIBILITY.

* - THESE STATIONS ARE NOT NWS STATIONS...THUS NOT UNDER NWS
QUALITY CONTROL.  THEY ALSO DO NOT REPORT WEATHER SUCH
AS PRECIPITATION OR FOG.

IAZ001>003-012>014-020>022-031>034-043>046-250800-
   NORTHWEST IOWA

CITY           SKY/WX    TMP DP  RH WIND       PRES   REMARKS
CARROLL *      CLOUDY    68  61  77 NE14      29.88R
CHEROKEE *     CLOUDY    68  63  83 SE16      29.77F
DENISON *      CLOUDY    70  61  73 S14G23    29.78F
LE MARS *      CLEAR     72  63  73 S9G17     29.74F
ORANGE CITY *  CLEAR     70  59  68 SE6       29.75F
SHELDON *      PTCLDY    66  63  88 SE7G14    29.77F
SIOUX CITY     CLOUDY    78  65  63 SW24G44   29.70F HX  80
SPENCER        CLOUDY    65  61  87 E12       29.85R
STORM LAKE *   CLEAR     64  64 100 SE14G21   29.82F
$$

IAZ055>058-069>071-079>083-090>094-250800-
   SOUTHWEST IOWA

CITY           SKY/WX    TMP DP  RH WIND       PRES   REMARKS
ATLANTIC *     MOCLDY    70  61  73 S14       29.85F
AUDUBON *      CLEAR     72  64  78 S8        29.87F
CLARINDA *     CLEAR    N/A N/A N/A S9        29.89F
COUNCIL BLFS *   N/A     72  63  73 W15G21    29.92R
CRESTON *      CLEAR     68  59  73 S14       29.89F
HARLAN  *      CLEAR     70  61  73 SW18G29   29.87F
LAMONI         CLOUDY    65  59  81 S8        29.91F
RED OAK *      CLOUDY    72  61  68 S9        29.88F
SHENANDOAH *   CLEAR     68  63  83 S5        29.89S
$$

IAZ047>049-059>061-072>074-084-250800-
   CENTRAL IOWA

CITY           SKY/WX    TMP DP  RH WIND       PRES   REMARKS
AMES           MOCLDY    64  60  87 SE9       29.89F
ANKENY *       CLEAR     66  61  82 SE10      29.88F
CHARITON *     PTCLDY    64  59  82 SE8       29.92F
DES MOINES     CLOUDY    68  59  73 SE13      29.89F
GRINNELL*      CLEAR     63  57  82 SE10      29.94F
KNOXVILLE *    CLEAR     64  57  77 SE10      29.90F
MARSHALLTOWN   PTCLDY    65  58  78 SE16      29.91F
PELLA *        PTCLDY    63  59  88 SE10      29.93F
PERRY *          N/A     64  63  94 S6        29.87F
$$

IAZ004>006-015-016-023>025-035-036-250800-
   NORTH CENTRAL IOWA

CITY           SKY/WX    TMP DP  RH WIND       PRES   REMARKS
ALGONA *       RAIN      64  63  94 NE9       29.96R
CLARION *      LGT RAIN  64  63  94 S10G18    29.92R
ESTHERVILLE    TSTM      63  62  97 E14       29.92R FOG
FORT DODGE *   CLOUDY    63  61  94 SE5       29.91R
MASON CITY     MOCLDY    64  61  90 S15       29.92F
FOREST CITY *  MOCLDY    63  63 100 S13       29.90S
IOWA FALLS *   RAIN      63  61  94 SE9       29.94S
$$

IAZ007>011-017>019-026>030-037>042-050>054-066-250800-
   NORTHEAST IOWA

CITY           SKY/WX    TMP DP  RH WIND       PRES   REMARKS
CEDAR RAPIDS   PTCLDY    63  57  81 SE7       29.99F
CHARLES CITY * PTCLDY    64  59  82 SE12G21   29.93F
CLINTON *      CLEAR     61  55  82 SE6       30.07F
DECORAH *      PTCLDY    63  59  88 S8        29.96F
DUBUQUE        CLEAR     59  57  93 SW5       30.03F
MONTICELLO *   CLEAR     61  59  94 SE6       30.01F
OELWEIN *      CLEAR     63  59  88 SE10      29.97F
WATERLOO       PTCLDY    67  57  70 SE18G24   29.91F
$$

IAZ064-065-067-068-078-250800-
   EAST CENTRAL IOWA

CITY           SKY/WX    TMP DP  RH WIND       PRES   REMARKS
DAVENPORT      CLEAR     62  55  77 SE8       30.04F
IOWA CITY      PTCLDY    62  58  86 SE7       30.02F
MT. PLEASANT * CLEAR     61  57  88 SE6       30.02F
MUSCATINE *    CLEAR     59  57  94 CALM      30.03S
QUAD CITIES    CLEAR     61  55  81 S6        30.04S
$$

IAZ062-063-075>077-085>089-095>099-250800-
   SOUTHEAST IOWA

CITY           SKY/WX    TMP DP  RH WIND       PRES   REMARKS
BURLINGTON     CLEAR     63  57  81 SE5       30.03S
FAIRFIELD *    CLEAR     61  57  88 SE8       29.98F
FORT MADISON * CLEAR     64  61  88 SE3       30.04S
KEOKUK *       CLEAR     64  57  77 SE5       30.02S
OSKALOOSA *      N/A     63  59  88 SE10      29.96F
CENTERVILLE *  CLEAR     64  59  82 SE8       29.96F
OTTUMWA        CLEAR     65  57  75 SE13      29.95F
WASHINGTON *   CLEAR     63  59  88 SE8       30.00F
$$

ABBREVIATIONS USED IN REMARKS
   TC - TEMPERATURES IN CELSIUS
  WCI - WIND CHILL INDEX
   HX - HEAT INDEX
  VSB - VISIBILITY
$$



USA.gov is the U.S. government's official web portal to all federal, state and local government web resources and services.